Lid_Strength_Index
5 4 4 4 3 3 3 2 2 2 2 2 1 1 1 1 1 1 1 1 2 2 1 1 1 2 2 0 0 0 0 0 0
6 5 4 4 3 3 2 2 2 2 2 2 2 1 1 1 1 1 1 2 1 1 1 1 1 4 4 0 0 0 0 1 1
6 5 4 4 4 3 3 2 2 2 2 2 2 1 1 1 1 1 1 1 1 1 1 0 0 1 1 0 0 0 0 1 1
6 5 5 4 4 3 3 4 2 2 2 2 2 1 1 1 1 1 1 1 1 1 1 0 1 1 0 1 1 0 1 1 1
6 5 4 4 4 4 4 3 2 2 1 2 2 1 1 1 1 1 1 1 1 1 1 0 2 4 3 1 1 1 1 1 1
6 5 5 4 4 4 4 3 3 2 3 3 2 1 2 2 2 1 1 1 1 2 1 4 3 0 2 3 1 1 1 1 1
6 5 5 5 4 4 4 3 3 3 2 2 2 2 2 2 2 2 2 1 2 1 3 5 4 3 1 1 2 1 2 3 3
5 6 5 5 5 4 4 3 3 3 2 2 2 2 2 2 2 2 1 2 2 1 1 3 4 4 3 1 1 1 3 3 3
6 5 5 5 4 4 4 4 3 3 3 2 2 2 2 2 2 2 1 2 2 1 1 2 3 4 4 2 1 3 3 2 1
5 5 5 4 4 4 4 3 3 3 3 2 2 2 2 2 2 2 1 1 1 3 4 4 4 3 3 3 2 2 2 1 1
5 5 4 4 4 3 3 3 2 2 2 2 2 3 2 2 2 2 2 3 3 2 3 2 2 2 2 2 1 1 2 0 1
4 4 4 3 3 3 3 4 2 2 3 2 2 3 2 2 2 2 3 3 3 2 2 2 2 1 1 1 1 1 2 4 2
4 4 4 4 3 3 3 4 3 3 3 3 3 2 2 2 2 2 2 2 2 1 3 3 1 2 1 1 1 2 5 5 4
3 3 3 3 3 3 3 2 3 3 4 3 2 2 2 1 1 1 1 2 2 2 2 3 3 3 1 2 2 3 5 7 4
4 4 3 3 3 4 3 2 2 3 3 2 2 2 2 2 2 1 1 2 2 2 2 2 2 2 2 1 1 4 3 7 6
4 4 3 3 3 3 3 2 2 3 3 2 2 2 2 2 2 2 1 2 2 2 2 2 3 3 3 2 1 1 4 4 6
4 3 3 3 3 4 4 3 2 2 2 2 2 2 2 2 2 2 2 2 2 2 2 2 3 3 3 2 3 2 2 3 4
4 4 3 3 4 4 3 3 2 2 2 2 2 2 2 2 2 2 2 2 2 2 1 2 2 2 2 3 3 3 6 3 2
4 4 3 4 3 3 3 3 2 2 2 2 2 3 3 3 3 2 2 2 2 4 6 7 7 8 5 2 4 8 10 10 9
4 4 4 4 4 3 3 3 3 2 1 1 2 3 3 3 3 2 2 2 3 3 2 6 9 9 9 10 7 8 9 11 10